Find Astrocast-0101

NORAD ID: 47430 Int'l Des: 2021-006 Owner: ACAST Country: CH operational
LEOCIRCULARRETROGRADESSO

リアルタイム位置

3D地球を読み込み中...

Astrocast-0101について

説明を読み込み中...

次回通過

Passes for default location (London). Set your location on the main map for personalized predictions.

高度履歴

Loading altitude history...

軌道要素

1 47430U 21006T 26107.22729474 .00037241 00000-0 34404-3 0 9995
2 47430 97.2391 173.6187 0001444 89.0871 271.0556 15.67487145290364
Epoch: Apr 17, 2026 • Age: 10 hours

現在のステータス

高度 394.0 km
速度 7.67 km/s
衛星直下点 -73.56°S, 113.06°W
打ち上げ日 Jan 24, 2021
運用期間 5.2 years
タイプ other

技術仕様

分類 Payload
質量 5.00 kg
乾燥質量 5.00 kg
総質量 5.00 kg
長さ 0.30 m
直径 0.10 m
スパン 0.30 m
形状 Box
製造者 ACAST
バスタイプ Cubesat 3U
フェーズステータス In Orbit
所有者/国 ACAST/CH

Most Searched